Simultaneous Nadir Overpasses (SNOs) Predictions

Prediction of SNOs between AQUA and NPP Satellite Orbit:

Table of predicted SNOs for the next 14.0 days since TLE Epoch: 5/6/2023
Index Date (AQUA) Time (AQUA) Lat,Lon (AQUA) SZA (AQUA ) Date (NPP) Time (NPP) Lat,Lon (NPP) SZA (NPP ) Distance(km) Time Diff (sec)
1 05/08/2023 00:52:15 -80.33,-107.81 106.07 05/08/2023 00:51:47 -80.34,-107.65 106.08 3.06 28
2 05/08/2023 01:41:35 80.43, 60.80 73.76 05/08/2023 01:42:27 80.43, 60.74 73.73 1.09 52
3 05/10/2023 15:27:29 -80.35, 33.51 106.78 05/10/2023 15:27:07 -80.35, 33.63 106.79 2.27 22
4 05/10/2023 16:16:50 80.44,-157.89 73.05 05/10/2023 16:17:48 80.44,-158.00 73.02 1.99 58
5 05/13/2023 06:02:42 -80.38, 175.10 107.51 05/13/2023 06:02:27 -80.38, 175.17 107.51 1.28 15
6 05/13/2023 06:52:04 80.44, -16.62 72.38 05/13/2023 06:53:09 80.44, -16.79 72.36 3.13 65
7 05/15/2023 20:37:55 -80.38, -43.66 108.13 05/15/2023 20:37:48 -80.38, -43.66 108.13 0.08 7
8 05/15/2023 21:27:14 80.53, 125.57 71.59 05/15/2023 21:28:26 80.54, 125.68 71.52 1.99 72



Historial Predications of SNOs between AQUA and NPP
